ECMWFFLT1_700_spd_090.txt.gz
Wind_Speed
55 56 57 57 58 59 59 59 59 59 59 59 59 59 59 59 59 59 60 60 59 59 60 60 60 61 61 61 61 61 62 62 62 63 63 63 63 64 64 65 66 70 72 71 68 68 67 66 65 66 66 67 68 68 67 66 65 63 61 60 59 60 61
56 56 56 57 57 57 58 58 59 59 59 60 59 59 59 59 59 59 60 60 60 59 59 59 60 60 60 61 61 61 61 61 61 62 62 62 62 62 62 63 64 68 71 72 69 68 68 67 67 68 67 67 69 69 69 69 68 67 65 63 62 61 61
57 58 58 58 57 57 57 57 57 57 58 58 58 58 58 58 58 58 59 59 59 58 58 59 58 58 59 59 60 60 60 60 60 60 61 61 61 62 62 61 62 65 69 71 70 68 68 68 68 68 68 68 69 69 70 71 71 71 69 67 65 64 63
57 58 58 58 58 58 57 57 57 56 56 56 56 56 56 56 56 56 56 57 57 57 57 57 57 57 57 57 58 59 59 59 59 59 60 60 60 61 61 61 62 63 66 69 70 68 68 69 68 69 69 68 69 70 70 71 72 72 73 71 68 67 66
56 56 56 56 56 56 56 56 56 56 55 55 54 55 55 55 55 55 55 55 55 55 55 55 56 56 56 56 57 57 57 57 57 58 59 59 60 60 61 61 62 63 64 66 69 69 68 69 69 69 70 69 69 70 70 72 73 72 73 73 71 70 69
55 55 54 54 54 54 54 54 54 54 54 54 53 54 54 54 54 54 54 54 53 54 54 55 55 55 55 56 56 56 56 56 56 57 58 59 59 59 60 62 62 63 64 65 67 68 68 69 68 68 69 70 69 69 70 71 73 72 73 75 73 71 71
54 54 53 52 52 52 52 52 51 51 52 52 52 53 53 53 53 52 53 53 53 53 53 54 54 54 54 54 55 55 55 55 56 56 57 58 59 59 60 62 63 63 64 66 67 67 68 69 68 67 68 69 69 69 69 70 73 73 72 75 75 73 72
53 53 52 52 51 50 50 50 49 49 49 49 50 50 51 51 50 50 51 51 51 52 52 53 53 53 53 52 53 54 54 54 55 55 57 58 58 59 60 61 63 64 65 66 67 68 68 68 68 68 67 67 68 68 70 71 72 73 72 72 75 75 73
52 51 51 50 50 49 48 48 47 46 46 46 47 48 48 48 48 48 49 49 49 50 50 51 52 52 51 50 51 51 52 53 54 55 56 57 57 58 60 61 62 64 66 67 68 69 68 67 68 68 66 67 67 68 70 70 69 72 72 70 73 76 73
50 50 49 49 48 47 46 46 45 44 43 43 43 44 45 46 46 46 47 48 48 48 49 49 49 50 49 49 49 50 51 52 53 53 55 55 56 57 59 60 62 63 64 66 68 69 69 68 68 67 66 67 67 66 66 67 68 72 73 69 69 74 73
48 48 47 47 46 45 44 43 42 41 40 39 39 40 42 44 44 45 46 46 47 47 47 47 47 47 47 48 48 48 49 50 51 52 52 53 53 54 56 58 61 63 64 64 66 67 69 70 69 68 66 66 67 66 64 64 66 68 71 70 69 73 73
46 46 45 45 45 44 43 42 40 40 39 37 36 37 38 40 42 43 45 45 45 45 45 45 45 45 45 46 47 46 46 47 48 48 48 49 49 49 50 51 53 57 60 62 64 65 67 69 68 68 67 65 66 66 63 63 65 65 69 71 68 70 72
45 44 44 44 43 43 42 41 39 38 36 35 34 35 35 37 40 42 43 43 43 43 43 43 43 43 44 44 43 43 42 41 42 43 43 44 44 45 46 46 48 50 53 57 61 63 65 66 65 66 67 66 65 65 63 63 63 61 63 68 67 68 70
44 43 43 42 42 42 41 39 37 36 34 33 33 33 34 36 38 40 41 40 40 40 41 40 39 39 40 40 39 39 38 37 39 41 43 44 44 46 47 47 48 50 52 54 58 62 65 64 64 64 65 65 64 63 63 63 58 50 48 51 55 58 60
44 43 43 42 42 41 39 37 35 34 33 33 33 33 33 35 36 37 37 37 37 37 36 35 35 37 39 39 39 39 39 40 41 42 44 45 45 47 48 49 50 51 52 54 56 60 63 63 63 63 62 63 62 62 64 63 58 47 39 39 42 43 45
44 44 43 42 41 41 39 36 34 33 32 32 32 32 33 35 34 34 34 33 33 32 32 33 34 37 39 40 42 42 42 43 42 43 46 46 45 45 46 48 50 49 49 50 51 54 57 59 60 59 58 58 57 58 59 60 59 52 41 40 42 41 41
44 43 43 42 40 40 39 35 33 33 33 32 30 30 32 33 31 30 30 29 29 30 32 34 35 38 41 42 43 44 44 43 41 42 45 47 45 44 44 45 46 45 44 44 44 47 48 49 50 50 49 49 50 50 49 51 56 56 47 43 44 43 41
43 42 41 41 40 39 39 36 34 34 33 31 28 27 28 28 28 27 28 28 30 32 34 36 37 39 42 43 43 42 41 40 39 40 43 44 43 41 42 41 40 40 40 38 39 42 43 43 43 42 42 43 44 43 41 43 48 52 50 45 43 42 40
43 42 40 40 39 38 37 36 35 33 31 30 26 23 23 24 25 26 28 30 33 35 36 37 38 37 37 38 39 39 38 37 37 39 42 41 38 39 42 37 30 27 29 29 32 37 41 42 43 42 41 42 41 40 41 42 43 47 49 46 43 41 39
42 42 40 39 38 37 35 35 34 31 29 28 24 20 19 21 24 26 28 31 33 34 35 35 33 32 32 34 35 35 35 35 34 36 38 38 37 39 37 27 18 16 17 18 21 25 30 35 39 41 43 43 41 41 42 43 43 46 48 44 41 39 39
41 41 40 38 37 36 33 32 31 29 28 27 23 19 19 21 23 24 27 30 31 32 33 32 31 30 31 33 33 31 30 29 27 28 31 34 36 33 25 17 14 15 16 17 18 18 20 26 31 36 41 42 42 42 42 43 47 49 49 45 41 38 37
40 40 39 37 36 33 31 29 27 25 25 25 22 19 19 21 22 22 25 29 29 29 31 31 31 30 28 28 28 26 24 21 18 18 21 24 23 21 17 17 19 20 20 23 22 19 19 22 24 28 33 37 39 39 38 41 46 50 50 45 41 39 38
39 40 39 37 34 31 29 26 22 19 20 22 21 20 20 21 21 22 25 26 25 25 28 29 30 28 24 24 24 22 19 16 15 16 18 17 16 17 19 22 24 25 26 27 25 21 20 21 21 23 27 31 34 34 33 34 40 46 47 43 39 37 38
39 39 39 37 34 31 28 24 19 16 17 19 19 20 21 21 21 22 22 21 20 23 26 28 28 26 22 20 21 19 17 17 17 16 16 16 17 21 23 24 25 27 28 27 26 23 22 21 22 23 24 26 29 31 30 29 34 40 42 41 38 36 36
39 39 38 37 35 31 28 24 20 17 17 17 18 20 20 20 20 21 19 17 18 23 27 28 27 24 20 18 17 17 16 15 14 13 14 16 18 21 23 23 24 26 26 26 25 23 21 21 22 22 22 22 25 29 31 30 33 37 39 38 37 35 35
39 38 38 37 35 33 28 25 22 20 19 18 18 20 21 20 19 18 16 15 19 24 28 27 24 20 18 17 16 16 16 15 14 13 13 14 16 18 19 20 21 22 22 21 19 18 17 19 21 21 21 21 22 26 31 33 36 39 40 37 35 35 35
39 38 38 38 36 34 31 28 26 24 21 20 19 21 22 19 17 15 15 15 20 25 28 27 23 18 16 15 15 16 17 17 17 15 13 13 16 17 17 17 18 19 19 18 16 14 14 16 19 19 20 21 21 22 27 33 38 41 40 38 37 36 35
40 39 38 38 37 37 35 32 29 26 24 21 19 19 20 19 17 17 17 18 22 26 29 29 25 19 16 16 16 16 17 18 17 15 13 15 17 17 15 15 16 16 17 18 19 17 15 16 17 18 19 21 21 22 23 28 36 41 41 39 37 36 36
40 39 39 38 37 38 37 35 32 28 26 24 23 21 21 20 20 20 20 21 24 26 28 30 29 23 18 17 18 18 18 18 17 16 15 15 16 15 12 11 12 13 14 16 17 17 17 16 16 17 18 19 21 23 23 25 31 38 40 37 35 35 35
37 37 37 37 36 36 36 36 34 31 28 26 25 24 22 21 21 21 22 22 24 25 26 28 29 25 20 17 18 19 19 18 16 15 15 15 15 13 10 9 10 11 12 13 14 15 16 16 15 15 16 17 19 22 24 25 29 35 37 35 33 34 34
33 32 33 34 34 34 34 33 33 32 29 27 25 24 22 20 20 21 22 22 22 23 24 25 26 25 22 20 19 19 19 18 16 15 15 16 16 14 12 11 11 10 10 11 13 14 13 13 12 12 13 15 17 21 24 27 31 35 36 35 34 34 33
31 31 30 30 31 32 33 32 31 31 30 28 26 25 22 21 21 21 21 21 21 21 23 24 24 24 23 23 22 20 17 16 15 15 15 17 17 16 15 13 12 12 12 12 13 13 12 11 11 11 11 12 14 18 22 27 32 37 38 37 35 34 33
28 29 29 27 27 28 29 30 29 30 29 28 27 25 23 22 21 20 20 20 20 20 21 22 21 21 22 24 25 22 16 12 11 12 15 17 19 19 18 16 15 14 14 14 14 14 13 10 10 11 12 11 12 15 19 25 32 38 40 38 35 33 33
24 26 27 26 24 24 26 27 26 27 27 27 25 24 23 21 19 18 18 18 19 20 20 20 19 19 20 23 25 23 16 10 7 8 11 15 19 21 21 20 19 18 17 17 16 15 13 11 10 11 12 12 11 12 15 22 30 36 39 39 36 33 33
25 24 25 25 24 23 24 25 25 25 25 26 25 24 22 20 17 16 17 18 19 19 18 17 17 17 17 19 23 23 18 10 6 5 5 8 14 19 21 22 22 22 20 19 18 17 14 12 11 10 12 13 12 11 12 17 24 32 36 37 36 34 32
30 27 25 24 24 23 23 24 24 24 24 25 25 24 22 20 18 17 17 17 17 17 17 16 17 16 15 16 18 21 19 12 7 5 4 3 6 12 17 20 22 23 22 22 20 18 16 13 11 11 12 13 12 11 11 14 20 28 33 35 35 32 29

ECMWFFLT1_700_spd_096.txt.gz
Wind_Speed
41 43 44 45 46 47 49 51 52 54 55 56 57 58 60 61 61 60 59 58 57 56 55 56 57 58 58 58 58 59 59 60 60 60 61 61 61 61 62 62 64 68 71 71 69 67 66 63 62 62 61 61 62 62 62 63 62 61 60 59 59 59 59
42 43 44 46 47 48 50 51 53 54 56 57 58 59 60 60 59 58 56 55 54 53 52 52 53 54 54 53 55 56 57 57 57 58 59 60 60 60 60 59 61 64 68 71 69 68 68 65 63 63 63 62 63 63 64 64 64 63 62 61 61 60 59
43 44 45 46 48 49 50 51 53 54 55 57 58 59 59 57 56 54 53 52 52 51 50 50 51 51 50 50 51 52 53 54 54 55 56 57 57 58 58 57 58 60 64 67 68 68 68 67 65 64 63 63 63 64 65 65 65 64 64 63 62 61 60
43 44 45 47 48 49 51 52 53 54 55 56 57 57 56 54 52 51 51 51 51 50 49 49 49 49 48 48 50 50 49 50 51 51 52 53 54 55 56 56 56 57 59 62 65 66 66 66 65 64 63 63 64 64 65 66 66 65 65 64 63 63 62
44 45 46 47 48 50 51 52 53 54 55 55 55 54 52 50 50 49 49 49 49 49 48 48 48 47 47 47 48 48 47 47 48 48 49 50 51 51 53 54 54 55 56 58 61 63 64 64 64 64 63 62 63 64 65 65 66 66 65 65 64 63 62
45 46 47 48 49 51 52 52 53 54 54 54 52 50 48 48 48 48 48 47 47 47 47 47 47 46 46 46 46 46 45 45 46 46 46 47 48 48 49 51 52 53 53 55 57 59 61 61 61 62 62 61 60 62 64 65 65 66 65 65 65 64 63
46 47 48 49 50 51 52 53 53 53 53 52 49 47 47 47 47 46 46 46 46 46 46 46 46 45 45 45 45 44 44 44 44 44 44 44 45 45 46 48 49 49 50 52 54 56 58 59 59 59 60 59 58 60 62 63 64 65 65 65 64 64 63
47 48 48 49 50 51 52 52 52 52 52 49 47 45 45 45 45 45 45 45 44 44 44 44 44 44 43 43 43 43 42 42 42 42 43 42 42 43 44 45 46 46 47 49 51 52 54 55 56 57 57 57 56 58 59 59 61 64 64 64 64 64 63
47 48 48 49 50 51 51 51 51 51 49 47 45 44 44 44 44 44 44 44 43 43 43 42 41 41 40 40 40 39 39 39 39 39 40 41 40 41 41 42 43 43 44 45 47 48 49 51 53 54 54 54 54 55 56 56 58 61 63 64 65 65 63
47 47 48 49 49 50 50 50 50 49 47 44 43 43 43 44 44 44 44 44 44 43 42 41 41 40 38 38 37 36 35 35 35 35 36 37 37 38 38 40 41 42 42 43 44 44 45 47 50 50 50 51 52 52 53 54 56 59 61 62 64 66 64
47 47 47 48 49 49 50 49 48 47 45 42 40 40 41 42 43 44 44 45 45 43 42 41 40 39 38 38 37 35 34 33 32 31 31 32 32 33 34 35 37 39 39 40 41 42 42 44 46 46 46 47 49 49 51 53 54 56 58 60 63 65 64
47 47 47 48 48 49 49 48 47 45 43 40 38 37 38 40 41 43 45 45 45 43 41 40 39 38 37 37 36 36 35 34 33 31 29 28 28 28 29 30 33 35 36 37 38 39 40 42 43 43 43 44 45 46 48 50 51 53 56 58 60 63 63
47 47 46 47 47 48 48 47 45 44 41 39 37 36 36 37 40 43 44 44 43 41 40 39 38 37 36 35 35 34 33 32 31 29 27 25 25 25 25 25 27 30 33 35 37 39 39 38 38 39 40 40 39 41 44 48 50 51 52 55 57 59 60
46 46 46 46 47 47 47 45 44 43 40 38 36 35 35 37 40 42 42 42 41 40 38 37 37 36 35 33 33 32 30 28 26 24 23 23 24 25 24 24 25 26 29 33 36 39 40 37 37 38 39 37 36 39 43 46 47 48 49 52 54 55 56
46 46 45 45 46 47 46 44 42 41 39 36 35 34 35 38 39 40 40 39 39 38 38 37 36 35 34 32 30 27 25 23 22 23 24 26 27 27 27 27 27 26 27 29 32 36 38 37 37 38 39 38 38 39 42 44 45 45 46 49 52 54 55
46 45 45 45 46 46 45 43 41 39 37 35 33 34 35 37 38 39 39 38 37 37 37 36 35 34 33 30 27 22 20 20 23 26 29 31 31 31 31 30 29 27 29 31 32 34 37 37 37 37 39 39 38 39 40 40 42 43 45 48 52 54 54
45 44 44 45 45 45 45 42 40 38 36 34 32 33 35 37 38 39 40 39 38 37 37 35 34 33 32 29 23 19 18 21 24 28 31 33 34 35 35 35 32 30 31 32 33 35 37 39 40 40 39 37 37 37 36 38 41 43 44 46 50 53 53
44 44 43 44 44 45 44 42 40 38 35 32 31 32 34 36 38 40 41 40 39 38 36 35 33 32 31 27 22 19 21 23 26 29 31 34 36 37 38 38 36 35 33 32 33 34 35 38 40 42 41 39 38 37 36 39 43 44 42 44 47 50 50
44 43 43 43 44 44 44 43 40 37 33 30 30 31 32 34 37 39 40 40 40 39 37 34 32 30 29 26 22 21 23 26 27 29 32 35 37 39 39 37 37 37 37 37 37 35 33 34 35 38 41 42 42 41 40 42 46 46 46 47 48 49 50
43 43 42 42 43 42 42 42 40 35 31 29 29 28 29 32 35 37 38 40 41 40 38 34 31 29 26 24 22 23 25 27 28 30 33 37 39 40 40 38 38 38 38 39 40 37 33 31 31 32 36 40 42 43 43 44 46 48 49 51 52 52 52
43 43 42 41 41 41 41 40 38 34 30 28 27 26 26 29 32 33 35 39 41 40 38 34 31 27 23 22 22 24 26 28 29 31 35 38 40 41 40 39 39 39 37 38 39 36 32 31 31 30 32 36 40 43 43 43 43 45 48 52 56 56 56
42 42 42 41 40 40 39 38 37 34 30 27 26 25 25 26 28 29 32 37 40 39 37 35 31 26 22 22 23 25 28 30 31 33 36 38 40 42 41 42 42 39 36 34 33 31 31 31 30 29 29 29 31 33 34 33 33 34 37 43 48 53 57
42 42 42 40 39 39 39 37 35 33 30 27 25 24 24 24 25 26 30 35 37 36 35 35 31 27 24 25 26 28 30 31 31 32 33 35 39 41 40 40 41 39 35 30 28 27 28 30 29 28 27 24 23 23 23 23 24 24 27 31 35 40 48
41 42 42 41 40 39 38 37 34 32 30 28 26 25 24 23 24 25 28 31 32 32 33 34 32 29 27 27 28 30 30 29 28 29 30 30 32 36 35 34 34 37 35 31 28 27 28 28 27 27 27 26 25 24 24 24 25 25 27 29 30 31 35
41 42 42 42 41 40 38 37 34 31 29 27 27 26 24 23 23 24 26 27 27 27 28 30 29 29 29 28 29 30 29 27 26 27 27 26 26 29 30 30 30 33 35 33 31 30 29 29 29 27 26 25 24 25 25 26 26 27 27 27 27 27 29
42 42 43 43 42 40 39 37 34 32 29 27 27 26 25 24 23 23 24 24 23 23 23 23 24 26 27 28 29 29 27 26 25 26 26 27 28 29 29 29 30 32 34 33 32 31 31 31 31 30 28 25 24 23 23 24 25 26 26 24 24 25 26
42 42 43 43 42 40 39 37 36 34 31 29 28 27 26 24 23 23 22 22 21 20 19 19 20 22 24 26 26 26 25 25 25 26 27 28 32 33 29 28 29 30 32 32 31 30 29 29 31 31 28 25 23 21 19 20 23 24 24 22 21 23 24
41 41 42 43 43 42 40 39 38 36 34 33 31 29 27 26 25 24 24 24 22 21 19 19 19 20 21 22 23 23 23 24 26 26 27 29 34 34 27 24 27 27 29 29 28 27 26 25 26 27 25 23 21 19 17 18 21 21 21 19 19 21 23
41 42 43 43 44 43 43 41 40 38 36 35 34 32 30 29 28 28 28 28 26 23 21 21 20 19 19 20 21 21 22 24 25 25 26 29 34 31 22 18 23 24 25 26 26 24 23 21 20 21 22 24 23 19 17 17 17 17 17 17 18 21 22
39 41 42 43 43 43 43 42 41 39 37 36 35 33 31 30 29 29 29 29 27 25 23 22 20 19 19 19 20 21 22 23 24 25 25 29 31 27 17 14 18 20 21 22 22 21 19 16 14 12 13 15 16 15 14 15 15 16 17 17 18 21 21
35 37 39 40 41 42 42 41 40 39 37 36 34 33 32 30 28 27 28 29 28 26 24 23 21 20 19 19 20 21 22 22 24 24 25 28 27 23 15 12 15 17 17 18 18 18 17 13 9 6 6 7 9 10 11 13 15 16 18 18 20 21 21
32 33 35 36 38 40 41 40 39 38 38 37 35 34 33 31 28 26 27 28 27 26 25 23 22 20 20 19 20 20 20 21 23 23 24 26 25 19 14 12 13 14 16 16 16 16 16 12 8 5 6 7 8 9 10 12 15 18 20 21 22 21 21
31 32 33 33 34 36 37 38 37 37 37 37 36 35 34 31 28 26 27 27 26 25 24 23 21 19 19 19 20 20 19 20 22 22 23 24 23 18 13 12 13 14 15 15 15 15 15 13 11 9 9 8 9 10 10 11 12 15 18 20 21 21 20
30 31 32 32 32 32 33 34 34 34 34 35 35 34 33 30 27 26 27 27 27 25 24 22 20 19 19 19 19 19 19 19 20 20 20 22 22 17 12 11 14 16 16 16 15 15 16 15 14 12 10 10 9 10 11 11 12 12 14 17 20 21 20
30 31 32 32 32 32 32 32 32 32 32 33 34 34 32 29 26 25 25 25 26 26 24 23 22 21 19 19 19 19 18 18 18 18 19 20 20 16 12 11 13 17 19 18 17 17 17 17 16 14 13 12 11 11 11 12 12 12 12 14 18 21 19
33 32 31 32 33 33 32 31 31 31 31 31 32 33 32 30 27 25 24 23 24 25 24 24 23 22 20 19 19 18 18 17 17 16 17 19 19 16 12 11 12 15 19 21 20 19 19 18 17 16 16 15 15 14 14 13 12 13 12 12 16 21 20

ECMWFFLT1_700_spd_099.txt.gz
Wind_Speed
37 37 36 37 38 38 39 39 39 40 41 42 43 44 46 47 49 51 52 53 54 55 56 57 58 59 58 56 54 53 51 50 49 49 50 50 51 52 53 53 56 61 68 70 68 67 68 67 66 67 65 64 64 62 61 61 60 60 60 60 60 60 60
36 36 36 37 37 38 39 39 40 41 42 43 44 45 46 48 50 52 53 54 55 55 56 57 58 58 56 53 51 50 48 47 46 47 47 48 48 49 50 50 52 56 62 67 67 66 67 67 66 67 66 64 65 64 63 63 62 61 61 61 61 62 62
36 36 37 37 37 38 39 40 41 41 42 43 44 46 47 49 51 52 53 54 55 55 56 57 57 56 53 50 49 48 46 45 44 44 45 46 46 47 48 47 49 52 55 60 64 64 64 65 65 65 65 64 64 64 64 64 64 63 63 62 62 62 62
36 37 37 38 38 38 39 40 41 42 42 43 45 46 48 49 51 52 53 54 54 55 55 56 55 53 50 47 47 46 44 43 43 43 43 44 44 44 45 45 46 48 51 54 58 60 61 62 62 63 64 63 63 64 64 64 65 64 64 64 63 63 63
36 36 37 38 38 39 40 40 41 42 43 43 45 47 48 50 51 52 53 54 54 54 54 54 53 50 47 46 46 45 43 43 42 41 42 42 42 42 42 43 44 45 47 49 53 56 56 57 59 60 61 61 61 62 62 63 63 64 65 65 65 65 65
36 37 37 37 38 39 40 41 42 42 43 43 45 47 49 50 51 52 53 53 53 53 53 52 51 48 46 45 45 43 42 42 41 41 41 41 40 40 40 41 42 42 43 45 48 51 52 53 54 56 58 57 56 58 60 61 62 62 63 64 65 66 65
36 37 37 37 38 39 40 41 42 42 42 43 45 47 49 50 51 52 52 52 52 52 51 50 48 46 45 43 43 41 40 40 40 39 39 39 39 39 39 40 40 40 41 43 45 47 48 49 50 51 53 53 52 53 57 58 59 60 60 61 63 65 65
37 37 37 37 38 39 40 41 41 41 42 43 45 47 49 49 50 51 52 52 51 51 50 48 45 44 42 40 40 39 38 38 38 38 38 38 38 38 39 39 39 40 40 41 42 43 44 45 46 47 48 49 48 50 53 53 53 57 58 58 60 62 64
37 37 37 37 38 39 40 41 41 41 41 42 44 47 48 49 50 51 52 52 51 50 48 46 43 41 39 38 37 37 36 36 36 37 38 36 35 36 37 38 39 39 40 40 40 40 39 40 42 42 42 43 44 45 47 47 48 53 56 55 57 59 60
37 37 38 38 39 39 40 40 40 39 40 41 44 46 48 49 50 52 52 52 52 51 48 44 41 39 38 37 36 36 35 35 34 35 35 34 33 33 34 35 36 37 37 38 38 37 36 37 38 37 37 38 39 39 42 44 45 48 50 51 54 58 58
37 37 37 38 39 39 39 39 38 38 39 40 42 44 46 48 49 51 52 52 52 50 47 43 41 39 37 36 36 35 35 35 34 33 33 32 30 29 30 30 32 32 31 32 33 33 33 35 36 34 33 34 35 36 37 39 40 43 46 48 51 55 56
36 37 37 38 39 39 39 38 37 37 38 40 41 42 43 46 48 50 50 50 50 48 45 43 41 39 37 36 35 35 35 34 33 32 31 29 27 25 24 24 27 29 30 30 32 32 32 33 33 33 31 31 31 31 33 34 35 38 42 44 47 51 53
36 36 37 38 38 38 38 37 36 36 37 39 40 41 42 44 47 49 49 48 47 45 43 42 41 39 37 35 34 34 34 33 31 29 27 25 22 20 19 19 21 24 28 31 33 35 34 31 30 31 30 27 26 27 30 33 34 35 37 40 43 47 49
36 36 36 37 38 38 37 36 35 35 36 38 39 40 41 44 47 48 47 46 44 43 42 41 40 39 37 34 32 31 30 29 28 25 23 20 18 18 18 19 20 21 24 28 32 36 37 34 32 31 29 24 23 26 29 30 30 30 33 36 38 40 43
36 36 36 36 37 37 37 35 35 35 35 37 38 39 41 44 46 46 46 44 41 41 42 40 39 38 36 33 30 28 27 26 24 22 20 18 18 19 20 21 22 23 26 28 30 33 35 35 34 32 30 25 23 26 27 28 28 29 30 34 36 38 40
35 35 35 35 36 37 36 34 34 35 35 36 37 39 41 43 45 45 44 42 40 40 41 39 38 37 34 31 28 25 24 23 22 21 21 21 21 22 24 25 24 25 26 28 29 31 32 33 33 31 31 29 27 27 27 27 29 31 31 34 37 38 40
35 35 35 35 36 36 36 34 33 34 34 35 36 38 41 43 44 44 43 41 40 40 40 39 38 36 33 30 26 23 22 21 20 22 24 25 26 27 28 29 28 28 27 27 29 32 34 35 35 34 34 34 32 32 32 33 37 37 35 37 39 39 39
36 35 34 35 36 36 36 34 33 34 34 34 35 37 40 42 43 44 43 41 39 39 40 40 38 35 33 30 26 23 21 19 20 23 26 26 28 29 31 32 32 33 33 32 33 33 34 35 36 37 38 37 36 36 36 40 44 43 41 43 45 44 42
36 35 34 35 35 35 36 35 33 33 33 32 33 36 38 40 43 43 42 40 39 39 40 40 37 33 32 31 27 23 22 20 20 22 24 26 29 32 34 34 35 37 39 38 37 34 33 33 34 35 36 37 36 35 34 37 42 44 46 49 50 48 47
36 35 34 34 35 35 35 34 33 32 32 31 32 35 37 38 41 41 41 39 39 40 41 39 35 32 30 29 26 22 20 20 19 20 24 28 33 35 35 36 38 40 40 40 39 38 37 36 34 33 32 33 32 32 32 35 38 41 45 50 53 53 52
35 35 34 33 34 35 34 34 32 31 31 30 31 33 35 36 38 39 38 38 39 41 41 37 34 32 30 28 25 22 19 18 19 22 27 31 34 34 36 38 41 40 40 41 42 43 42 41 39 36 32 30 30 30 31 33 34 34 38 45 50 53 54
35 35 34 33 33 34 34 33 32 31 30 29 30 32 33 34 36 35 36 38 40 39 38 35 33 31 30 28 26 23 21 21 21 24 28 31 32 33 36 39 40 38 39 40 41 43 43 41 39 37 33 30 29 29 29 30 30 30 33 38 42 47 51
35 35 35 34 33 33 33 32 31 30 30 29 29 30 31 32 33 33 34 38 39 37 35 33 32 30 28 27 26 25 26 26 25 27 28 29 31 33 35 36 36 37 38 38 38 40 42 39 35 33 32 29 28 28 28 29 30 30 30 32 34 37 41
35 35 35 34 34 33 33 32 31 30 30 29 28 28 29 30 31 31 33 35 36 34 33 32 30 27 26 27 28 29 29 27 25 26 27 28 31 34 35 35 35 36 38 39 38 38 38 36 31 29 30 30 29 28 28 29 30 30 29 29 29 30 31
34 34 35 35 35 34 33 32 31 30 29 29 28 28 28 29 29 29 30 32 32 31 31 29 27 25 25 26 29 30 29 27 25 25 27 29 33 35 35 35 35 36 37 39 38 36 35 32 27 26 29 30 30 30 30 30 29 28 28 29 29 29 29
35 35 35 36 36 35 34 33 31 30 29 28 28 28 28 28 28 28 28 29 29 28 28 26 23 22 23 24 27 28 29 28 27 27 29 32 34 34 33 33 34 36 37 38 36 33 30 27 24 26 29 30 30 31 30 29 29 28 28 28 30 31 31
36 36 36 37 36 35 34 33 31 30 30 30 29 29 29 29 28 28 28 27 26 25 24 22 21 20 21 22 23 24 26 27 27 27 29 31 30 30 30 32 34 36 36 35 31 27 24 23 22 25 27 29 30 30 28 26 27 28 29 28 28 31 33
35 36 36 37 37 36 35 34 32 32 32 32 33 32 32 32 30 30 30 29 27 25 22 20 19 20 20 20 21 22 23 24 25 26 27 27 27 27 28 30 32 34 33 29 24 19 18 19 20 23 25 27 28 27 24 23 24 26 27 26 26 29 30
35 36 38 39 38 38 38 37 36 34 34 34 35 35 35 35 34 33 31 30 30 28 23 21 21 20 20 20 20 20 20 21 23 24 24 25 25 26 26 28 31 31 27 22 17 15 16 17 19 20 22 24 23 21 19 21 24 25 23 23 24 25 25
34 35 37 39 39 39 39 40 39 37 35 34 35 35 35 34 33 33 32 31 31 29 26 23 22 21 20 20 19 19 19 20 21 22 22 23 24 24 24 26 28 27 21 16 14 14 15 16 17 18 19 20 18 17 17 21 24 24 22 20 21 21 20
31 32 33 36 37 37 37 38 38 37 35 34 34 35 34 33 31 30 30 31 32 30 27 25 23 22 21 20 20 20 20 20 20 21 22 22 22 22 22 24 25 23 18 14 14 15 15 16 16 16 16 16 15 13 13 14 15 16 16 17 17 19 20
30 30 31 32 33 34 35 36 37 36 35 34 35 35 35 34 31 29 29 30 31 30 28 26 24 22 21 21 20 20 20 20 20 20 21 21 21 20 20 21 22 20 16 14 15 16 16 16 15 14 15 16 14 12 11 10 10 12 14 17 19 21 21
30 30 30 29 30 31 32 33 34 34 34 33 34 35 36 34 31 29 30 30 29 29 28 26 24 23 22 21 20 19 19 19 19 19 19 20 20 19 19 19 20 18 15 14 16 17 17 17 15 15 16 16 14 12 12 12 12 13 15 17 19 20 20
27 29 29 28 28 29 30 30 31 31 31 32 32 33 34 33 30 29 30 30 29 28 27 26 25 23 22 22 21 19 18 18 18 18 18 18 19 19 18 17 18 17 15 15 16 18 18 17 16 16 17 18 16 15 14 13 13 13 14 15 16 17 18
26 26 27 28 28 28 28 28 28 29 29 30 31 32 33 31 29 28 28 28 29 28 27 26 25 24 23 22 21 20 19 18 18 18 18 17 18 18 17 16 16 15 14 15 16 18 19 18 18 18 19 19 18 17 15 14 13 13 13 14 15 16 16
29 28 27 28 29 29 28 28 28 28 29 30 31 33 33 32 31 29 28 27 28 28 27 26 26 24 23 22 21 20 19 18 18 18 17 17 17 17 16 14 14 13 13 14 16 19 20 20 20 20 21 21 20 19 18 17 16 15 15 15 16 17 17

ECMWFFLT1_700_spd_105.txt.gz
Wind_Speed
52 52 51 50 48 47 46 45 45 45 44 43 42 41 41 42 42 43 43 43 43 43 44 45 45 45 45 46 47 47 47 47 48 48 48 48 49 49 50 52 54 59 61 59 57 57 59 61 62 62 61 61 61 62 63 64 63 64 66 68 69 70 71
51 50 49 48 47 46 45 44 44 43 43 42 41 41 41 41 42 42 43 43 43 44 44 45 45 45 46 46 47 47 47 48 48 48 48 48 49 49 50 52 54 57 61 61 58 57 59 62 63 62 62 62 61 61 62 62 62 61 61 63 66 68 70
49 48 48 47 46 45 44 44 43 43 42 41 41 40 40 40 41 42 42 43 43 44 45 46 46 46 46 47 48 48 48 48 47 47 47 47 48 49 51 52 54 57 60 61 60 59 60 63 63 62 62 61 59 59 59 58 58 58 57 58 60 63 67
47 47 46 45 45 44 44 43 43 42 42 41 40 40 40 40 41 41 42 43 43 44 45 46 46 46 47 47 48 48 47 47 46 46 47 47 48 50 51 52 54 56 59 61 62 61 61 63 63 62 61 59 56 54 54 54 54 54 54 54 54 57 61
46 46 45 45 44 44 43 43 42 42 41 40 40 40 40 40 40 41 42 43 44 45 45 46 47 47 47 47 47 47 46 45 45 45 46 47 48 50 51 53 54 56 57 60 62 62 62 62 61 59 57 54 53 51 50 50 50 51 51 51 51 53 55
46 45 44 44 44 43 43 42 41 41 40 39 39 39 40 40 40 41 42 43 44 45 45 46 46 46 46 46 46 45 45 44 44 45 46 47 48 50 52 53 54 55 56 58 60 61 61 60 58 56 54 51 49 48 48 48 47 47 47 49 50 51 51
45 44 44 43 43 43 42 42 41 40 40 39 39 39 39 39 40 41 42 43 44 44 45 45 45 45 45 44 44 44 44 44 44 45 46 47 48 50 51 52 53 53 54 55 57 58 58 56 55 53 51 48 46 46 46 45 46 45 44 45 48 50 49
45 44 43 43 43 43 42 42 41 39 39 38 38 38 39 39 40 42 42 43 43 44 44 45 44 44 43 42 43 43 43 44 44 45 46 46 48 49 50 51 52 51 51 52 53 54 54 53 52 51 49 47 45 45 44 41 43 46 44 43 44 46 47
44 43 43 43 43 42 42 41 40 39 38 38 38 38 39 40 41 42 42 43 43 44 44 43 43 42 41 41 41 42 42 43 43 45 46 46 47 48 49 49 48 48 48 49 50 51 50 50 51 49 47 46 45 45 44 41 41 44 44 42 42 43 43
44 43 43 43 43 42 41 40 40 38 38 38 38 39 40 41 41 42 43 43 44 44 43 42 41 40 40 40 41 41 41 42 42 43 45 45 46 47 47 47 46 46 46 46 47 48 47 48 49 47 46 46 44 43 43 41 40 42 41 40 42 42 39
44 43 42 43 43 42 41 39 39 38 37 37 38 39 40 42 42 43 43 44 44 43 42 41 40 39 40 40 40 41 41 41 41 42 43 44 45 45 44 44 45 45 45 45 47 47 46 47 47 45 44 44 43 42 41 39 38 39 39 37 39 40 37
43 42 42 42 42 41 40 39 38 38 37 37 37 37 39 41 43 44 44 44 43 42 41 41 40 40 40 40 41 41 41 41 41 41 42 42 42 41 40 39 40 42 43 45 47 47 47 46 45 43 41 39 39 38 36 35 34 34 35 33 33 36 35
43 42 42 42 42 41 40 38 37 37 37 37 36 36 37 40 43 45 45 44 43 41 41 41 41 41 41 40 41 40 40 41 41 41 41 40 39 39 38 38 37 38 41 43 46 48 48 46 44 43 38 33 31 32 32 31 30 29 29 29 28 30 31
42 42 41 41 41 41 40 37 37 37 37 37 36 35 36 40 43 44 44 43 42 42 41 41 41 42 41 40 40 40 40 40 40 39 39 39 39 39 38 38 38 38 39 40 42 45 46 44 42 42 39 32 27 28 29 28 27 26 25 27 28 29 30
42 41 41 41 41 41 40 37 37 37 37 36 36 35 37 39 42 43 43 43 42 41 41 41 41 41 41 40 40 39 38 38 38 38 39 39 39 38 37 37 37 38 38 38 38 40 42 41 39 38 36 31 26 27 28 28 30 30 30 33 34 33 32
42 41 40 40 40 41 40 37 36 37 37 36 35 35 37 39 40 42 42 42 41 40 40 40 40 41 41 40 39 37 36 36 37 40 42 41 39 38 37 37 36 35 35 35 36 37 37 37 36 34 32 30 30 31 33 34 37 38 38 40 41 40 37
42 40 40 40 40 40 40 38 36 36 36 35 35 35 37 38 39 41 42 41 40 39 39 39 39 40 40 39 37 36 34 34 37 40 42 41 39 38 37 37 36 34 34 33 34 35 35 35 34 34 34 34 35 35 35 36 39 40 40 42 44 44 43
42 40 39 39 40 40 40 38 36 36 36 35 34 35 36 37 39 40 41 40 39 38 38 38 39 39 39 38 36 34 34 35 36 38 38 38 38 37 37 36 36 37 37 35 35 35 37 38 39 39 40 40 40 39 37 38 40 41 41 43 45 46 45
42 41 39 39 39 40 40 39 37 36 36 34 33 33 35 36 38 40 40 40 39 39 38 38 38 38 37 36 34 34 35 35 34 35 36 37 36 37 38 37 37 39 40 39 38 37 38 40 41 43 44 43 43 42 41 42 43 43 44 47 48 47 47
42 41 39 38 39 39 39 40 38 36 36 35 32 32 33 36 38 39 40 40 40 39 38 38 37 36 34 34 34 34 35 34 33 34 35 35 36 38 39 39 40 42 42 43 42 39 38 38 39 41 44 45 45 45 44 44 44 46 47 49 51 50 51
41 41 40 38 38 38 38 39 39 37 36 35 33 31 32 35 37 38 40 42 41 40 39 38 37 35 34 34 34 34 34 35 34 32 31 34 37 38 38 40 43 44 44 43 42 40 38 37 36 36 38 41 43 44 43 43 44 45 47 49 51 52 53
41 41 40 38 37 37 38 38 39 38 36 35 34 32 32 33 35 37 40 43 42 41 39 38 36 35 34 34 34 34 34 35 34 32 33 37 39 39 40 43 45 45 43 42 41 39 37 35 34 34 33 35 37 38 39 40 40 41 44 45 47 49 51
41 40 39 37 36 36 37 38 39 38 37 35 34 32 31 31 34 36 40 43 43 41 39 37 37 36 36 35 35 35 36 36 37 37 37 38 39 41 43 45 45 44 43 42 40 38 36 34 33 33 32 32 33 34 36 37 38 40 43 45 46 47 49
40 40 39 37 36 35 36 37 38 37 36 35 34 33 31 31 33 36 39 42 42 41 39 39 38 37 36 36 36 36 36 38 39 39 39 38 39 41 42 43 42 42 42 41 39 37 35 33 33 33 32 33 34 35 36 39 40 42 44 46 47 48 49
40 39 39 37 36 34 34 36 36 35 35 34 34 33 32 32 34 35 37 39 40 40 39 39 38 36 35 36 36 36 37 38 39 40 40 39 39 39 40 41 41 42 41 40 39 36 33 32 33 34 34 34 35 37 39 41 44 46 47 49 50 49 48
40 39 38 37 36 35 34 34 34 34 33 33 33 33 33 34 35 35 36 38 38 38 38 37 35 33 33 33 34 36 38 39 39 39 40 39 38 38 39 40 40 40 41 40 39 37 35 33 33 33 34 35 36 38 41 43 46 47 46 46 45 45 43
39 39 38 37 36 35 35 34 33 32 31 30 31 31 31 32 33 34 35 36 36 36 36 33 31 30 31 32 33 35 36 37 37 37 38 39 39 38 38 39 39 40 41 41 41 40 38 35 34 34 35 36 37 39 40 42 43 41 37 33 33 34 33
38 38 38 38 37 36 35 33 32 31 30 29 29 29 29 30 31 32 33 34 34 34 32 29 28 29 30 31 31 32 33 34 34 35 35 36 36 37 38 38 39 40 41 41 41 39 37 35 34 34 34 36 37 37 37 37 34 31 27 24 24 25 25
38 37 37 38 37 36 35 33 31 31 30 30 30 31 31 32 32 33 34 33 32 30 28 28 29 30 31 30 30 31 31 32 33 34 34 33 34 35 36 36 38 38 39 39 39 37 36 34 33 33 34 35 35 35 33 29 27 25 22 21 21 20 19
39 38 38 38 38 37 36 35 33 32 31 31 32 33 34 35 36 37 38 36 34 32 31 30 31 32 31 31 31 30 31 32 32 33 32 32 33 33 34 35 36 37 37 37 37 35 34 33 32 32 33 34 33 31 27 25 23 22 20 19 18 17 16
38 39 39 39 39 38 37 36 35 34 33 32 32 32 34 34 36 39 41 39 36 35 35 33 33 33 33 32 32 31 31 32 32 32 32 32 32 32 32 33 34 36 36 36 35 34 33 32 32 32 32 32 31 28 24 22 22 21 19 18 16 16 16
35 37 38 38 38 38 38 37 36 35 34 34 33 33 34 34 35 39 42 40 37 36 36 36 35 35 34 34 33 32 32 32 33 33 33 32 31 31 31 32 33 34 35 34 33 33 32 31 31 31 30 30 29 25 22 21 21 20 19 17 16 16 17
32 34 37 38 37 37 37 37 36 36 35 35 35 35 36 37 36 38 40 39 37 37 37 37 37 36 35 35 34 33 32 32 33 33 33 32 32 31 30 30 31 32 33 33 32 32 31 30 30 30 29 28 27 23 21 21 20 20 19 18 17 17 18
30 31 34 35 36 36 36 36 36 36 36 36 36 36 38 40 39 38 39 39 38 38 37 37 37 36 36 36 35 33 32 32 32 32 32 32 31 31 30 30 30 31 32 32 31 30 30 29 28 28 27 27 25 22 21 22 21 21 20 19 19 18 17
30 30 31 33 34 35 35 35 35 35 35 36 36 36 39 41 40 38 38 38 39 39 38 37 37 36 35 35 35 34 33 32 32 32 32 31 31 31 30 29 29 30 30 30 30 29 28 28 27 26 26 26 23 21 22 23 22 22 22 21 20 19 18
32 31 31 31 33 35 35 34 34 34 35 35 35 37 39 41 40 39 39 38 39 39 39 38 37 36 35 35 35 34 34 33 32 32 32 32 31 30 29 29 28 29 29 29 28 28 27 26 26 25 25 25 23 21 22 24 24 24 23 23 22 21 20